Погода Троицкое

Погода Троицкое : погода сейчас, прогноз погоды и архив. Всё, что Вы хотите узнать о погоде Троицкое!

Хотите узнать прогноз погоды Троицкое? Тогда Вам сюда: Погода Троицкое

Поиск расширенной информации на нашем сайте:

Другие новости

Новости СМИ2

Главная страница сайта

Новости сайта

03.07.2017

Напоминаем, что на нашем специализированном сайте Метеоцентр.Азия вы можете получить высокодетализированные автоматические прогнозы погоды по пунктам России, СНГ и мира в авиационном формате (включающие направление и скорость ветра, видимость, явления погоды, количество и форму облачности, нижнюю и верхнюю границу облачности).


Погода Троицкое - сегодня

Время (UTC), дата Ветер
(°,м/с) 
Видим.   Явления Облачность Т
(°С)
Тd
(°С)
f(%) Тe
(°С)
Pmin
(гПа)
dP
(гПа)
Po
(мм)
O2
(г/м3)
Тmin Tmax R s Состояние
почвы
03 21.09.17 230 (ЮЗ) 20000 м    8/8 600 м 
[Cu hum]
+18 +12.4 70 +23  1007  0.2  752  282           
06 21.09.17 210 (ЮЗ) 20000 м    6/6 600 м 
[Cu hum]
+20.2 +9.7 51 +21  1006.6  -0.3  752  280           
09 21.09.17 180 (Ю) 20000 м    6/6 600 м верхняя 
[Cu hum|Ci]
+13.7 +9.3 75 +14  1007.5  0.8  753  287    +20.5       
12 21.09.17 190 (Ю) 20000 м    8/0 верхняя 
[Ci ing]
+13.7 +9.1 74 +13  1008.4  0.9  753  287           
15 21.09.17 190 (Ю) 20000 м    10/0 верхняя 
[Ci sp]
+12 +8.6 80 +11  1009.6  1.1  754  290           
18 21.09.17 190 (Ю) 20000 м    10/0 верхняя 
[Ci sp]
+11.1 +7.8 80 +10  1010.4  0.8  755  291           
21 21.09.17 190 (Ю) 20000 м    4/0 верхняя 
[Ci fib]
+9.7 +7.4 86 +9  1011.9  1.5  756  293  +9.7        влажная 
00 22.09.17 210 (ЮЗ) 20000 м    ясно 
+17.2 +9.4 60 +18  1013.1  1.3  757  285           
03 22.09.17 220 (ЮЗ) 20000 м    ясно 
+22.3 +10.7 48 +24  1012.3  -0.7  756  280           
06 22.09.17 340 (С) 20000 м    ясно 
+23.9 +11.3 45 +27  1011.2  -1.1  756  278           
09 22.09.17 180 (Ю) 20000 м    ясно 
+17 +12.4 74 +22  1011.1  -0.2  755  284    +24.4       
12 22.09.17 150 (ЮВ) 20000 м    ясно 
+12.4 +10.7 89 +16  1011.2  0.1  755  289           
15 22.09.17 210 (ЮЗ) 20000 м    ясно 
+11.8 +9.9 88 +14  1010.5  -0.7  755  290           
18 22.09.17 тихо ()   20000 м    ясно 
+11 +9.8 92 +12  1009.7  -0.9  754  290           
21 22.09.17 тихо ()   20000 м    3/3 600 м 
[Sc]
+9.4 +8.5 94 +9  1009.8  0.1  754  292  +8.7        влажная 
00 23.09.17 180 (Ю) 20000 м    8/0 600 м верхняя 
[Sc|Ci]
+17.5 +10.1 62 +19  1009.6  0.1  754  284           
03 23.09.17 220 (ЮЗ) 10 км  слаб. ливневой дождь  10/10 600 м кучево-дожд. 
[Cb cap]
+16.1 +12.2 78 +21  1009.7  754  285           
06 23.09.17 200 (Ю) 20000 м  {ливн. осадки}  8/5 600 м кучево-дожд., верхняя 
[Cb cap|Ci fib]
+21.5 +10.7 50 +24  1007.1  -2.4  752  279           
09 23.09.17 210 (ЮЗ) 4{12}  10 км  в посл. час ливневой дождь  10/10 600 м кучево-дожд. 
[Cb cap]
+14.5 +12.5 88 +19  1009  1.7  754  286    +21.8  0.1     
12 23.09.17 200 (Ю) 10 км  {ливн. осадки}  10/10 600 м кучево-дожд. 
[Cb cap]
+13.4 +12 91 +17  1010.1  1.1  755  288           
15 23.09.17 190 (Ю) 20000 м  {ливн. осадки}  10/10 600 м кучево-дожд. 
[Cb cap]
+11.4 +10.6 95 +12  1010.5  0.5  755  290           
18 23.09.17 190 (Ю) 20000 м    10/10 600 м кучево-дожд. 
[Cb cap]
+11 +9.6 91 +11  1010.5  0.1  755  291           
21 23.09.17 180 (Ю) 20000 м    3/3 600 м 
[Sc]
+10.5 +8.7 89 +10  1010.3  -0.2  755  291  +10.3        влажная 
00 24.09.17 190 (Ю) 20000 м    4/0 верхняя 
[Ci fib]
+16.9 +9.9 63 +18  1009.2  -1  754  284           
03 24.09.17 210 (ЮЗ) 20000 м    10/0 верхняя 
[Ci fib]
+21.4 +8.5 44 +21  1007.4  -1.7  753  280           
Время (UTC), дата Ветер
(°,м/с) 
Видим.   Явления Облачность Т
(°С)
Тd
(°С)
f(%) Тe
(°С)
Pmin
(гПа)
dP
(гПа)
Po
(мм)
O2
(г/м3)
Тmin Tmax R s Состояние
почвы

Для получения пояснительной информации подведите курсор к названию столбца.

ПОГОДА Троицкое - архив

Всё, что Вы хотите узнать о погоде Троицкое - удобно и подробно!

Выберите нужную дату (начиная с 1 января 2015* года) и нажмите кнопку "Найти".
Будут отображены архивные сводки погоды по пункту Троицкое, начиная с указанной даты.


Отображать данные в формате CSV (для использования в таблицах Excel)


Внимание! Наш архив погоды предназначен исключительно для личного некоммерческого использования в познавательных целях. Если Вам необходимы официальные справки о состоянии погоды (для производственных, юридических, коммерческих и т.п. целей), обращайтесь в органы Росгидромета.

*Примечание: данная дата относится к архиву по метеостанциям СССР (Россия, СНГ, Балтия).
Архив по метеостанциям Зарубежной Европы и Азии (кроме Китая) хранится 10 дней, по другим регионам земного шара (Китай, Африка, Америка, Австралия, Океания) - 1 день.

Троицкое - район местоположения метеостанции


Название, широта, долгота, высота метеостанции:
Троицкое 49.4°ш. 136.6°д. 33 м над ур. моря [Российская Федерация]

Дополнительная информация

В oтличие oт бoльшинства пoгoдных сайтoв мы публикуем пoдрoбную метеoинфoрмацию в детальнoм прoфессиoнальнoм фoрмате.

Характеристики температуры и влажнoсти вoздуха измеряются на высoте 2 м в тени вдали oт зданий и деревьев.
Скoрoсть ветра измеряется на высoте 10 м (на урoвне рoста челoвека скoрoсть ветра ниже в 1.5-2 раза). Если метеoстанция нахoдится в гoрoде или в лесу, тo скoрoсть ветра занижена на 2-4 м/с пo сравнению с oткрытым местoм. Скoрoсть ветра над акватoриями крупных рек и oзёр, а также на вершинах хoлмoв на 2-5 м/с выше, чем в oбычных услoвиях.
Атмoсфернoе давление в разных тoчках местнoсти мoжет значительнo oтличаться oт давления на метеoстанции, в зависимoсти oт услoвий рельефа (при пoдъёме на 10 м давление пoнижается примернo на 1 мм рт.ст.).